This demonstration page uses our WeatherBlox Daily Observations layout. Learn more.

38.88101, -77.10428

Hourly Observations for August 25, 2016

Temp ( °F °C ) Dew Point ( °F °C ) Humidity (%) Winds ( mph kmh ) Pressure ( in mb ) Visibility ( mi km ) Precip ( " mm )
1:52 am 01:52 Mostly Clear 72 22.2 64 17.8 76 76 SSW 9 15 30.15 1021 10 16.09344 0 0
2:52 am 02:52 Clear 72 22.2 63 17.2 73 73 S 10 17 30.15 1021 10 16.09344 0 0
3:52 am 03:52 Clear 72 22.2 64 17.8 76 76 S 9 15 30.15 1021 10 16.09344 0 0
4:52 am 04:52 Clear 72 22.2 65 18.3 79 79 SSW 10 17 30.12 1020 10 16.09344 0 0
5:52 am 05:52 Partly Cloudy 71 21.7 66 18.9 84 84 S 12 19 30.12 1020 10 16.09344 0 0
6:52 am 06:52 Mostly Cloudy 71 21.7 66 18.9 84 84 SSW 10 17 30.12 1020 10 16.09344 0 0
7:52 am 07:52 Cloudy 73 22.8 66 18.9 79 79 S 9 15 30.12 1020 10 16.09344 0 0
8:52 am 08:52 Cloudy 76 24.4 67 19.4 74 74 SSW 9 15 30.12 1020 10 16.09344 0 0
9:52 am 09:52 Cloudy 80 26.7 69 20.6 69 69 S 10 17 30.12 1020 10 16.09344 0 0
10:52 am 10:52 Cloudy 82 27.8 69 20.6 65 65 S 10 17 30.09 1019 10 16.09344 0 0
11:52 am 11:52 Cloudy 82 27.8 70 21.1 67 67 S 10 17 30.09 1019 10 16.09344 0 0
12:52 pm 12:52 Cloudy 84 28.9 71 21.7 65 65 S 13 20 30.09 1019 10 16.09344 0 0
1:52 pm 13:52 Cloudy 87 30.6 73 22.8 63 63 SSE 13 20 30.06 1018 10 16.09344 0 0
2:52 pm 14:52 Mostly Cloudy 86 30 73 22.8 65 65 S 12 19 30.03 1017 10 16.09344 0 0
3:52 pm 15:52 Sunny 88 31.1 74 23.3 63 63 S 10 17 30.03 1017 10 16.09344 0 0
4:52 pm 16:52 Mostly Cloudy 87 30.6 75 23.9 67 67 S 13 20 30.03 1017 10 16.09344 0 0
5:52 pm 17:52 Mostly Cloudy 86 30 75 23.9 70 70 S 13 20 30.03 1017 10 16.09344 0 0
6:52 pm 18:52 Mostly Cloudy 86 30 74 23.3 67 67 S 10 17 30 1016 10 16.09344 0 0
7:52 pm 19:52 Mostly Cloudy 85 29.4 73 22.8 68 68 S 9 15 30.03 1017 10 16.09344 0 0
8:52 pm 20:52 Mostly Cloudy 83 28.3 77 25 82 82 S 6 9 30.03 1017 10 16.09344 0 0
9:52 pm 21:52 Mostly Cloudy 82 27.8 76 24.4 82 82 S 6 9 30.03 1017 10 16.09344 0 0
10:52 pm 22:52 Partly Cloudy 82 27.8 75 23.9 79 79 S 7 11 30.03 1017 10 16.09344 0 0
11:52 pm 23:52 Clear 80 26.7 75 23.9 85 85 S 7 11 30.03 1017 10 16.09344 0 0

Powered by AerisWeather